Location: Bothwell
(41.7170°N, 112.2589°W)
Time: 02:35:19
(UTC+00:00)

Tiros 1 - Pass Details

Date: 10 May 2026
Orbit: 618 x 649 km, 48.4° (Epoch: 6 June)

Event Time Altitude Azimuth Distance (km) Brightness Sun altitude
Rises 12:14:11 0° 289° (WNW) 2,894 10.1 -0.9°
Reaches altitude 10° 12:16:39 10° 298° (WNW) 1,984 9.3 -0.5°
Maximum altitude 12:20:52 36° 6° (N) 983 8.5 0.3°
Drops below altitude 10° 12:25:04 10° 74° (ENE) 1,979 11.9 1.0°
Sets 12:27:32 0° 83° (E) 2,884 12.4 1.4°
